Regional Weather Roundup
Issued by NWS

Home | Current Version | Previous Version | Text Only | Print | Product List | Glossary Off
Versions: 1 2 3 4 5 6 7 8 9 10 11 12 13 14 15 16 17 18 19 20 21 22 23 24 25 26 27 28 29 30 31 32 33 34 35 36 37 38 39 40 41 42 43 44 45 46 47 48 49 50

879
ASUS43 KOAX 231010
RWRNE

WEATHER ROUNDUP FOR NEBRASKA
NATIONAL WEATHER SERVICE OMAHA NE
500 AM CDT TUE MAY 23 2017

NOTES: SATELLITE DATA IS BEING USED TO AUGMENT CLOUD COVER ABOVE
       12000 FEET.
       "FAIR" INDICATES FEW OR NO CLOUDS BELOW 12,000 FEET WITH NO
       SIGNIFICANT WEATHER AND/OR OBSTRUCTIONS TO VISIBILITY.

  * THESE STATIONS DO NOT REPORT WEATHER SUCH AS RAIN...SNOW OR FOG.

NEZ001>004-019>022-054>056-231100-
NEBRASKA PANHANDLE

CITY           SKY/WX    TMP DP  RH WIND       PRES   REMARKS
SCOTTSBLUFF    CLEAR     38  35  89 W8        30.17S WCI  32
ALLIANCE       CLOUDY    39  37  92 W8        30.12S WCI  33
CHADRON        CLOUDY    45  39  79 NW10      30.13F
GORDON         CLOUDY    43  39  86 W10       30.09S
KIMBALL        CLEAR     39  37  93 NW12      30.17F WCI  31
SIDNEY         CLEAR     37  35  92 W13       30.15F WCI  29
$$

NEZ057>060-069>072-079>082-231100-
SOUTHWEST NEBRASKA

CITY           SKY/WX    TMP DP  RH WIND       PRES   REMARKS
NORTH PLATTE   CLEAR     41  39  93 W8        30.07F
IMPERIAL       CLEAR     42  37  82 NW8       30.12S
LEXINGTON      CLOUDY    45  42  92 W9        30.05S
MCCOOK         CLEAR     44  41  89 NW13      30.08S
OGALLALA       CLOUDY    46  41  84 NW9       30.11S
$$

NEZ005>010-023>029-035>040-094-231100-
NORTH CENTRAL NEBRASKA

CITY           SKY/WX    TMP DP  RH WIND       PRES   REMARKS
VALENTINE      CLOUDY    50  42  74 W17       30.01F
AINSWORTH      CLOUDY    47  45  90 W10       29.99F
BROKEN BOW     CLOUDY    46  42  86 NW13      30.01F
O`NEILL        DRIZZLE   47  43  86 W7        29.96F
ORD            MOCLDY    44  40  85 W6        29.99S
THEDFORD       CLOUDY    43  41  93 W9        30.04F
$$

NEZ041-046>049-061>064-073>077-083>087-231100-
SOUTH CENTRAL NEBRASKA

CITY           SKY/WX    TMP DP  RH WIND       PRES   REMARKS
GRAND ISLAND   CLEAR     46  43  89 NW12      29.99S
AURORA         CLEAR     47  44  87 NW13      29.97F
HASTINGS       CLEAR     48  43  82 NW14      30.00S
HEBRON         MOCLDY    51  47  88 NW5       29.97S
HOLDREGE       CLEAR     46  43  88 NW9       30.04S
KEARNEY *      PTCLDY    46  41  81 NW12      30.02S
YORK           CLEAR     48  45  87 NW13      29.96S
$$

NEZ011>018-030>034-042>045-231100-
NORTHEAST NEBRASKA

CITY           SKY/WX    TMP DP  RH WIND       PRES   REMARKS
NORFOLK        CLEAR     46  41  82 NW8       29.94S
ALBION         CLEAR     44  41  88 NW5       29.97F
BLAIR          CLEAR     48  44  86 W7        29.91S
FREMONT        PTCLDY    48  44  86 W8        29.93S
TEKAMAH        PTCLDY    49  43  80 NW13      29.91S
WAYNE          CLEAR     45  45  99 NW8       29.93S
$$

NEZ050>053-065>068-078-088>093-231100-
SOUTHEAST NEBRASKA

CITY           SKY/WX    TMP DP  RH WIND       PRES   REMARKS
LINCOLN        PTCLDY    50  44  80 NW8       29.95S
OMAHA EPPLEY   PTCLDY    47  42  83 NW5       29.91R
BEATRICE       PTCLDY    50  47  90 NW7       29.95R
FALLS CITY     CLOUDY    53  48  83 NW10      29.90R
NEBRASKA CITY  CLOUDY    50  46  84 NW8       29.91S
PLATTSMOUTH    MOCLDY    49  44  84 W7        29.91S
$$

NEZ044-045-051>053-067-231100-
OMAHA AREA

CITY           SKY/WX    TMP DP  RH WIND       PRES   REMARKS
OMAHA EPPLEY   PTCLDY    47  42  83 NW5       29.91R
BLAIR          CLEAR     48  44  86 W7        29.91S
FREMONT        PTCLDY    48  44  86 W8        29.93S
MILLARD        PTCLDY    51  46  82 NW8       29.92S
OFFUTT AFB     CLOUDY    48  45  89 NW7       29.90S
PLATTSMOUTH    MOCLDY    49  44  84 W7        29.91S
WAHOO          FAIR      49  44  81 NW9       29.93S
$$




USA.gov is the U.S. government's official web portal to all federal, state and local government web resources and services.